EW6013 Weather Reports


Display with metric or nautical units.
time (UTC)temp
F
wind
direction
speed
MPH
gust
MPH
rain 1hr
in
rain 24hr
in
rain mn
in
humidity
%
barometer
mb
20260508013016 49 0.0 0.0 0.00 0.01 0.01 64 1005.2
20260508012516 49 0.0 0.0 0.00 0.01 0.01 63 1005.1
20260508012016 50 0.0 0.0 0.00 0.01 0.01 60 1005.0
20260508011516 50 0.0 0.0 0.00 0.01 0.01 59 1004.9
20260508011016 50 0.0 0.0 0.00 0.01 0.01 56 1004.9
20260508010516 50 0.0 0.0 0.00 0.01 0.01 54 1004.8
20260508010016 50 0.0 0.0 0.00 0.01 0.01 54 1004.8
20260508005516 51 0.0 0.0 0.00 0.01 0.01 53 1004.7
20260508005016 51 0.0 0.0 0.00 0.01 0.01 52 1004.6
20260508004516 52 0.0 0.0 0.00 0.01 0.01 51 1004.5
20260508004016 52 0.0 0.0 0.00 0.01 0.01 50 1004.5
20260508003516 52 0.0 0.0 0.00 0.01 0.01 49 1004.4
20260508003016 53 0.0 0.0 0.00 0.01 0.01 47 1004.4
20260508002516 53 0.0 0.0 0.00 0.01 0.01 46 1004.3
20260508002016 53 0.0 0.0 0.00 0.01 0.01 46 1004.4
20260508001517 54 0.0 0.0 0.00 0.01 0.01 45 1004.3
20260508001016 54 0.0 0.0 0.00 0.01 0.01 45 1004.3
20260508000516 54 0.0 0.0 0.00 0.02 0.01 44 1004.2
20260508000016 55 0.0 0.0 0.00 0.02 0.01 44 1004.2
20260507235516 55 0.0 0.0 0.00 0.02 0.01 43 1004.2
20260507235016 55 0.0 0.0 0.00 0.02 0.01 43 1004.1
20260507234516 55 0.0 0.0 0.00 0.02 0.01 42 1004.0
20260507234016 56 0.0 0.0 0.00 0.03 0.01 42 1004.0
20260507233516 56 0.0 0.0 0.00 0.03 0.01 41 1004.0
20260507233016 56 0.0 1.0 0.00 0.03 0.01 41 1004.0
20260507232516 56 259 0.0 1.0 0.00 0.03 0.01 41 1004.0
20260507232036 57 0.0 0.0 0.00 0.03 0.01 40 1003.9
20260507231536 57 0.0 1.0 0.00 0.04 0.01 39 1003.8
20260507231036 57 1 0.0 1.0 0.00 0.04 0.01 38 1003.8
20260507230516 57 0.0 0.0 0.00 0.04 0.01 38 1003.8
20260507230016 58 0.0 0.0 0.00 0.05 0.01 38 1003.7
20260507225516 58 0.0 0.0 0.00 0.05 0.01 38 1003.6
20260507225016 58 0.0 0.0 0.00 0.05 0.01 37 1003.6
20260507224516 58 0.0 0.0 0.00 0.05 0.01 37 1003.6
20260507224016 58 0.0 0.0 0.00 0.06 0.01 37 1003.5
20260507223516 59 0.0 1.0 0.00 0.06 0.01 37 1003.4
20260507223016 59 242 0.0 1.0 0.00 0.06 0.01 37 1003.4
20260507222516 59 213 0.0 1.0 0.00 0.07 0.01 36 1003.4
20260507222016 59 0.0 1.0 0.00 0.07 0.01 37 1003.4
20260507221516 59 264 0.0 1.0 0.00 0.07 0.01 37 1003.3
20260507221016 59 0.0 1.0 0.00 0.07 0.01 37 1003.3
20260507220516 59 231 0.0 1.0 0.00 0.07 0.01 37 1003.2
20260507220016 59 0.0 0.0 0.00 0.08 0.01 36 1003.2
20260507215516 60 0.0 0.0 0.00 0.08 0.01 36 1003.2
20260507215016 60 0.0 0.0 0.00 0.08 0.01 36 1003.1
20260507214516 60 0.0 8.0 0.00 0.09 0.01 36 1003.0
20260507214016 59 272 0.0 11.0 0.00 0.09 0.01 35 1003.0
20260507213516 60 274 1.0 11.0 0.00 0.09 0.01 36 1003.0
20260507213016 60 0.0 2.0 0.00 0.09 0.01 36 1003.0
20260507212516 60 226 0.0 10.0 0.00 0.10 0.01 35 1003.0
20260507212036 60 300 1.0 10.0 0.00 0.10 0.01 38 1003.0
20260507211515 60 320 1.0 9.0 0.00 0.10 0.01 38 1003.0
20260507211036 60 291 1.0 9.0 0.00 0.10 0.01 37 1003.0
20260507210516 60 339 1.0 13.0 0.00 0.10 0.01 38 1003.1
20260507210016 60 275 1.0 13.0 0.00 0.10 0.01 36 1003.0
20260507205516 61 259 0.0 9.0 0.00 0.11 0.01 36 1003.0
20260507205016 61 283 2.0 9.0 0.00 0.11 0.01 36 1003.0
20260507204516 61 13 0.0 1.0 0.00 0.11 0.01 35 1003.0
20260507204015 62 9 0.0 1.0 0.00 0.12 0.01 35 1003.0
20260507203515 62 0.0 15.0 0.00 0.12 0.01 37 1003.0
20260507203016 62 291 2.0 15.0 0.00 0.13 0.01 35 1003.0
20260507202516 62 247 3.0 9.0 0.00 0.13 0.01 36 1003.0
20260507202016 62 0.0 0.0 0.00 0.13 0.01 35 1003.0
20260507201516 63 0.0 0.0 0.00 0.14 0.01 34 1002.9
20260507201016 63 0.0 0.0 0.00 0.14 0.01 34 1003.0
20260507200516 63 0.0 4.0 0.00 0.15 0.01 37 1003.0
20260507200015 63 215 0.0 4.0 0.00 0.15 0.01 39 1003.0
20260507195515 62 223 0.0 12.0 0.00 0.15 0.01 37 1003.0
20260507195016 62 281 1.0 12.0 0.00 0.15 0.01 36 1003.1
20260507194535 63 0.0 1.0 0.00 0.15 0.01 37 1003.0
20260507194016 63 299 0.0 1.0 0.00 0.15 0.01 38 1003.1
20260507193515 63 0.0 8.0 0.00 0.15 0.01 37 1003.1
20260507193016 63 274 0.0 8.0 0.00 0.15 0.01 37 1003.3
20260507192536 63 75 0.0 2.0 0.00 0.15 0.01 37 1003.1
20260507192015 63 207 0.0 2.0 0.00 0.15 0.01 36 1003.2
20260507191515 63 0.0 2.0 0.00 0.15 0.01 37 1003.3
20260507191015 63 328 0.0 12.0 0.00 0.15 0.01 36 1003.4
20260507190535 63 263 1.0 12.0 0.00 0.15 0.01 38 1003.4
20260507190036 63 0.0 3.0 0.00 0.16 0.01 37 1003.4
20260507185515 62 34 0.0 4.0 0.00 0.16 0.01 39 1003.4
20260507185015 62 297 0.0 6.0 0.00 0.16 0.01 40 1003.5
20260507184515 62 309 1.0 6.0 0.00 0.17 0.01 38 1003.6
20260507184015 63 242 0.0 1.0 0.00 0.17 0.01 36 1003.6
20260507183515 63 0.0 0.0 0.00 0.17 0.01 35 1003.8
20260507183035 63 0.0 0.0 0.00 0.18 0.01 38 1003.8
20260507182535 63 0.0 1.0 0.00 0.18 0.01 37 1003.9
20260507182015 63 279 0.0 1.0 0.00 0.19 0.01 38 1003.9
20260507181515 62 0.0 0.0 0.00 0.19 0.01 37 1003.9
20260507181015 62 0.0 1.0 0.00 0.20 0.01 38 1004.0
20260507180515 62 304 0.0 12.0 0.00 0.20 0.01 38 1004.0
20260507180015 62 298 1.0 12.0 0.00 0.21 0.01 35 1004.0
20260507175515 63 256 0.0 11.0 0.00 0.21 0.01 37 1004.1
20260507175015 63 249 0.0 11.0 0.00 0.21 0.01 39 1003.9
20260507174515 63 0.0 0.0 0.00 0.21 0.01 39 1004.0
20260507174016 63 0.0 11.0 0.00 0.21 0.01 36 1003.9
20260507173515 63 260 1.0 11.0 0.00 0.21 0.01 38 1004.0
20260507173015 63 348 0.0 10.0 0.00 0.21 0.01 40 1003.9
20260507172515 63 0.0 2.0 0.00 0.21 0.01 39 1003.9
20260507172035 63 322 0.0 2.0 0.00 0.21 0.01 39 1003.8
20260507171515 63 306 0.0 2.0 0.00 0.21 0.01 40 1003.9
20260507171015 63 0.0 1.0 0.00 0.21 0.01 41 1004.1
20260507170515 62 242 0.0 1.0 0.00 0.21 0.01 39 1004.1
20260507170015 62 0.0 0.0 0.00 0.21 0.01 39 1004.2
20260507165515 62 0.0 4.0 0.00 0.21 0.01 39 1004.3
20260507165035 63 249 0.0 4.0 0.00 0.21 0.01 38 1004.4
20260507164515 63 0.0 1.0 0.00 0.21 0.01 42 1004.4
20260507164015 62 279 0.0 1.0 0.00 0.21 0.01 44 1004.5
20260507163515 62 0.0 6.0 0.00 0.21 0.01 43 1004.5
20260507163035 62 315 0.0 6.0 0.00 0.21 0.01 43 1004.5
20260507162515 61 353 0.0 1.0 0.00 0.21 0.01 47 1004.6
20260507162015 60 0.0 9.0 0.00 0.21 0.01 46 1004.6
20260507161515 60 290 0.0 12.0 0.00 0.21 0.01 46 1004.7
20260507161015 60 192 1.0 12.0 0.00 0.21 0.01 44 1004.7
20260507160515 61 0.0 1.0 0.00 0.21 0.01 48 1004.9
20260507160015 60 263 0.0 1.0 0.00 0.21 0.01 53 1004.9
20260507155515 60 302 0.0 1.0 0.00 0.21 0.01 50 1004.9
20260507155015 60 0.0 0.0 0.00 0.21 0.01 50 1004.9
20260507154515 60 0.0 0.0 0.00 0.21 0.01 52 1005.0
20260507154015 60 0.0 14.0 0.00 0.21 0.01 49 1005.0
20260507153535 60 308 0.0 14.0 0.00 0.21 0.01 50 1005.1
20260507153015 60 0.0 3.0 0.00 0.21 0.01 50 1005.0
20260507152535 59 349 0.0 3.0 0.00 0.21 0.01 53 1005.1
20260507152015 58 0.0 0.0 0.00 0.21 0.01 58 1005.2
20260507151515 58 0.0 0.0 0.00 0.21 0.01 60 1005.3
20260507151015 58 0.0 0.0 0.00 0.21 0.01 60 1005.1
20260507150515 58 0.0 1.0 0.00 0.21 0.01 60 1005.1
20260507150015 57 186 0.0 1.0 0.00 0.21 0.01 62 1005.2
20260507145555 57 0.0 1.0 0.00 0.21 0.01 59 1005.3
20260507145035 57 224 0.0 1.0 0.00 0.21 0.01 65 1005.3
20260507144555 57 0.0 0.0 0.00 0.21 0.01 64 1005.3
20260507144015 57 0.0 1.0 0.00 0.21 0.01 63 1005.3
20260507143515 57 292 0.0 7.0 0.00 0.21 0.01 63 1005.2
20260507143035 57 301 0.0 7.0 0.00 0.21 0.01 64 1005.3
20260507142514 57 318 0.0 5.0 0.00 0.21 0.01 63 1005.3
20260507142015 57 270 0.0 5.0 0.00 0.21 0.01 65 1005.3
20260507141515 57 265 0.0 2.0 0.00 0.21 0.01 66 1005.2
20260507141015 57 0.0 1.0 0.00 0.21 0.01 65 1005.1
20260507140515 57 301 0.0 2.0 0.00 0.21 0.01 65 1005.1
20260507140015 57 163 0.0 2.0 0.00 0.21 0.01 65 1005.1
20260507135515 57 0.0 1.0 0.00 0.21 0.01 66 1005.1
20260507135035 56 98 0.0 1.0 0.00 0.21 0.01 67 1005.1
20260507134515 56 0.0 0.0 0.00 0.21 0.01 67 1005.1
20260507134015 55 0.0 1.0 0.00 0.21 0.01 67 1005.1
20260507133515 55 325 0.0 1.0 0.00 0.21 0.01 68 1005.0
20260507133015 55 277 0.0 1.0 0.00 0.21 0.01 69 1005.1
20260507132515 54 176 0.0 1.0 0.00 0.21 0.01 68 1005.1
20260507132017 54 0.0 0.0 0.00 0.21 0.01 71 1005.2
20260507131517 54 0.0 0.0 0.00 0.21 0.01 70 1005.3
20260507131017 53 0.0 0.0 0.00 0.21 0.01 73 1005.4
20260507130517 53 0.0 1.0 0.00 0.21 0.01 74 1005.4
20260507130037 53 254 0.0 1.0 0.00 0.21 0.01 73 1005.4
20260507125536 52 0.0 0.0 0.00 0.21 0.01 74 1005.4
20260507125036 52 0.0 0.0 0.00 0.21 0.01 75 1005.4
20260507124516 52 0.0 0.0 0.00 0.21 0.01 75 1005.4
20260507124017 52 0.0 0.0 0.00 0.21 0.01 76 1005.4
20260507123517 52 0.0 0.0 0.00 0.21 0.01 77 1005.4
20260507123016 51 0.0 0.0 0.00 0.21 0.01 77 1005.5
20260507122515 51 0.0 3.0 0.00 0.21 0.01 77 1005.5
20260507122016 50 45 0.0 4.0 0.00 0.21 0.01 79 1005.5
20260507121516 50 353 0.0 4.0 0.00 0.21 0.01 82 1005.5
20260507121036 50 0.0 0.0 0.00 0.21 0.01 82 1005.5
20260507120516 49 0.0 0.0 0.00 0.21 0.01 83 1005.5
20260507120016 49 0.0 0.0 0.00 0.21 0.01 84 1005.5
20260507115516 49 0.0 0.0 0.00 0.21 0.01 84 1005.6
20260507115016 49 0.0 0.0 0.00 0.21 0.01 84 1005.4
20260507114516 49 0.0 0.0 0.00 0.21 0.01 85 1005.4
20260507114017 49 0.0 0.0 0.00 0.21 0.01 86 1005.4
20260507113536 49 0.0 0.0 0.00 0.21 0.01 87 1005.4
20260507113016 49 0.0 0.0 0.00 0.21 0.01 86 1005.4
20260507112536 48 0.0 0.0 0.00 0.21 0.01 87 1005.3
20260507112016 48 0.0 0.0 0.00 0.21 0.01 87 1005.3
20260507111516 48 0.0 0.0 0.00 0.21 0.01 88 1005.3
20260507111016 48 0.0 0.0 0.00 0.21 0.01 87 1005.3
20260507110516 48 0.0 0.0 0.00 0.21 0.01 88 1005.3
20260507110036 48 0.0 0.0 0.00 0.21 0.01 88 1005.3
20260507105516 48 0.0 0.0 0.00 0.21 0.01 88 1005.2
20260507105016 48 0.0 0.0 0.00 0.21 0.01 87 1005.2
20260507104516 48 0.0 0.0 0.00 0.21 0.01 88 1005.0
20260507104016 48 0.0 0.0 0.00 0.21 0.01 87 1005.0
20260507103516 48 0.0 0.0 0.00 0.21 0.01 86 1004.8
20260507103016 48 0.0 0.0 0.00 0.21 0.01 87 1004.6
20260507102516 48 0.0 0.0 0.00 0.21 0.01 87 1004.6
20260507102036 48 0.0 0.0 0.00 0.21 0.01 87 1004.7
20260507101536 48 0.0 0.0 0.00 0.21 0.01 86 1004.5
20260507101036 48 0.0 0.0 0.00 0.21 0.01 86 1004.6
20260507100516 48 0.0 0.0 0.00 0.21 0.01 86 1004.5
20260507100016 48 0.0 0.0 0.00 0.21 0.01 87 1004.7
20260507095536 48 0.0 0.0 0.00 0.21 0.01 87 1004.5
20260507095016 48 0.0 0.0 0.00 0.21 0.01 87 1004.5
20260507094536 48 0.0 0.0 0.00 0.21 0.01 86 1004.6
20260507094016 48 0.0 0.0 0.00 0.21 0.01 86 1004.8
20260507093516 48 0.0 0.0 0.00 0.21 0.01 86 1004.9
20260507093016 48 0.0 0.0 0.00 0.21 0.01 87 1004.9
20260507092516 48 0.0 0.0 0.00 0.21 0.01 86 1004.8
20260507092016 48 0.0 0.0 0.00 0.21 0.01 87 1004.9
20260507091516 48 0.0 0.0 0.00 0.21 0.01 87 1004.9
20260507091016 48 0.0 0.0 0.00 0.21 0.01 87 1004.9
20260507090516 48 0.0 0.0 0.00 0.21 0.01 87 1005.0
20260507090036 48 0.0 0.0 0.00 0.21 0.01 87 1005.0
20260507085516 48 0.0 0.0 0.00 0.21 0.01 88 1005.1
20260507085016 48 0.0 0.0 0.00 0.21 0.01 88 1004.9
20260507084556 48 0.0 1.0 0.00 0.21 0.01 88 1004.8
20260507084016 48 301 0.0 1.0 0.00 0.21 0.01 87 1005.1
20260507083516 48 0.0 1.0 0.00 0.21 0.01 87 1005.1
20260507083016 49 255 0.0 1.0 0.00 0.21 0.01 87 1004.7
20260507082536 49 274 0.0 1.0 0.00 0.21 0.01 86 1004.8
20260507082016 49 267 0.0 1.0 0.00 0.21 0.01 86 1004.7
20260507081516 49 0.0 0.0 0.00 0.21 0.01 86 1004.8
20260507081016 49 0.0 0.0 0.00 0.21 0.01 86 1004.9
20260507080516 49 0.0 0.0 0.00 0.21 0.01 85 1004.7
20260507080016 50 0.0 0.0 0.00 0.21 0.01 85 1004.5
20260507075536 50 0.0 0.0 0.00 0.21 0.01 84 1004.5
20260507075016 50 0.0 1.0 0.00 0.21 0.01 85 1004.5
20260507074536 50 190 0.0 1.0 0.00 0.21 0.01 84 1004.6
20260507074016 50 0.0 0.0 0.00 0.21 0.01 85 1004.6
20260507073516 50 0.0 0.0 0.00 0.21 0.01 85 1004.9
20260507073016 50 0.0 0.0 0.00 0.21 0.01 85 1004.9
20260507072616 50 0.0 0.0 0.00 0.21 0.01 86 1004.5
20260507072016 50 0.0 0.0 0.00 0.21 0.01 86 1004.4
20260507071516 51 0.0 0.0 0.00 0.21 0.01 86 1004.3
20260507071016 51 0.0 1.0 0.00 0.21 0.01 86 1004.2
20260507070536 51 324 0.0 1.0 0.00 0.21 0.01 86 1004.2
20260507070016 51 0.0 0.0 0.00 0.21 0.01 86 1004.1
20260507065516 51 0.0 0.0 0.00 0.21 0.01 86 1004.2
20260507065016 51 0.0 0.0 0.00 0.21 0.01 88 1004.2
20260507064516 51 0.0 0.0 0.00 0.21 0.01 88 1003.9
20260507064036 51 0.0 0.0 0.00 0.21 0.01 88 1003.7
20260507063516 51 0.0 0.0 0.00 0.21 0.01 88 1003.9
20260507063016 51 0.0 0.0 0.00 0.21 0.01 88 1004.0
20260507062516 51 0.0 0.0 0.00 0.21 0.01 89 1004.1
20260507062016 52 0.0 0.0 0.00 0.21 0.01 89 1003.8
20260507061516 52 0.0 0.0 0.00 0.21 0.01 90 1003.9
20260507061016 52 0.0 0.0 0.00 0.21 0.01 90 1004.0
20260507060535 52 0.0 0.0 0.00 0.21 0.01 90 1004.0
20260507060015 52 0.0 0.0 0.00 0.21 0.01 90 1004.1
20260507055516 52 0.0 0.0 0.00 0.21 0.01 90 1004.1
20260507055016 52 0.0 0.0 0.00 0.21 0.01 91 1004.1
20260507054515 53 0.0 0.0 0.00 0.21 0.01 91 1004.3
20260507054015 53 0.0 0.0 0.00 0.21 0.01 91 1004.5
20260507053516 53 0.0 0.0 0.00 0.21 0.01 91 1004.6
20260507053015 53 0.0 0.0 0.00 0.21 0.01 91 1004.6
20260507052536 53 0.0 0.0 0.00 0.21 0.01 91 1004.6
20260507052015 53 0.0 0.0 0.01 0.21 0.01 91 1004.6
20260507051535 53 0.0 0.0 0.01 0.21 0.01 91 1004.4
20260507051035 53 0.0 0.0 0.01 0.21 0.01 91 1004.5
20260507050515 54 0.0 0.0 0.01 0.21 0.01 91 1004.6
20260507050016 54 0.0 0.0 0.01 0.21 0.01 91 1004.6
20260507045515 54 0.0 0.0 0.01 0.21 0.01 91 1004.6
20260507045015 54 0.0 0.0 0.01 0.21 0.01 90 1004.4
20260507044515 54 0.0 0.0 0.01 0.21 0.01 90 1004.2
20260507044015 54 0.0 0.0 0.01 0.21 0.01 91 1004.1
20260507043515 55 0.0 0.0 0.01 0.21 0.01 91 1004.2
20260507043015 55 0.0 0.0 0.01 0.21 0.01 91 1004.4
20260507042515 55 0.0 0.0 0.01 0.21 0.01 91 1004.4
20260507042015 55 0.0 0.0 0.00 0.20 0.00 91 1004.3
20260507041515 55 0.0 0.0 0.00 0.20 0.00 91 1004.3
20260507041015 55 0.0 0.0 0.00 0.20 0.00 91 1004.3
20260507040516 55 0.0 0.0 0.00 0.20 0.00 90 1004.3
20260507040015 55 0.0 0.0 0.00 0.20 0.20 90 1004.3
20260507035535 56 0.0 0.0 0.00 0.20 0.20 90 1004.3
20260507035015 56 0.0 0.0 0.00 0.20 0.20 90 1004.3
20260507034515 56 0.0 0.0 0.00 0.20 0.20 89 1004.1
20260507034015 56 0.0 0.0 0.00 0.20 0.20 89 1004.0
20260507033515 56 0.0 1.0 0.00 0.20 0.20 90 1003.9
20260507033015 56 284 0.0 1.0 0.00 0.20 0.20 90 1003.7
20260507032515 57 0.0 4.0 0.00 0.20 0.20 90 1003.7
20260507032015 57 281 0.0 4.0 0.00 0.20 0.20 90 1003.6
20260507031515 58 0.0 1.0 0.00 0.20 0.20 91 1003.5
20260507031015 58 289 0.0 1.0 0.00 0.20 0.20 92 1003.4
20260507030515 58 0.0 0.0 0.00 0.20 0.20 91 1003.2
20260507030015 59 0.0 12.0 0.00 0.20 0.20 91 1003.1
20260507025515 59 257 1.0 12.0 0.00 0.20 0.20 92 1003.1
20260507025015 59 272 0.0 12.0 0.00 0.20 0.20 92 1003.2
20260507024515 60 263 1.0 12.0 0.00 0.20 0.20 92 1003.3
20260507024015 60 0.0 0.0 0.00 0.20 0.20 92 1003.3
20260507023515 60 0.0 0.0 0.00 0.20 0.20 92 1003.1
20260507023015 59 0.0 3.0 0.00 0.20 0.20 92 1003.1
20260507022515 59 252 0.0 3.0 0.00 0.20 0.20 92 1003.1
20260507022015 59 0.0 0.0 0.00 0.20 0.20 92 1003.1
20260507021515 59 0.0 0.0 0.00 0.20 0.20 92 1003.0
20260507021035 59 0.0 0.0 0.00 0.20 0.20 92 1002.8
20260507020515 59 0.0 0.0 0.00 0.20 0.20 92 1002.8
20260507020015 59 0.0 0.0 0.00 0.20 0.20 92 1002.6
20260507015515 59 0.0 0.0 0.00 0.20 0.20 92 1002.8
20260507015015 59 0.0 0.0 0.00 0.20 0.20 92 1002.8
20260507014515 59 0.0 0.0 0.00 0.20 0.20 92 1002.7
20260507014015 59 0.0 0.0 0.00 0.20 0.20 92 1002.7
20260507013535 59 0.0 0.0 0.00 0.20 0.20 92 1002.8